アサシン彗星

C/2018 N2 ( ASASSN )

English version
Home page
Updated on August 15, 2020

---------------------------------------------------------------------

・ プロフィール

発見日 2018年7月7日
発見光度 16.4等
発見者 All-Sky Automated Survey for Supernovae (ASASSN) program

・ 写真集

・ 軌道要素

Epoch 2019 Nov. 13.0 TT = JDT 2458800.5
T 2019 Nov. 10.96096 TT                                 Rudenko
q   3.1246401            (2000.0)            P               Q
z  -0.0000498      Peri.   24.39584     +0.78558545     -0.45744613
 +/-0.0000003      Node    25.25926     +0.27011673     -0.35227799
e   1.0001557      Incl.   77.53197     +0.55667984     +0.81648224
From 3277 observations 2018 July 11-2020 July 31, mean residual 0".4.

・ 星図

・ 光度変化

        m1 = 4.7 + 5 logΔ + 10.0 log r(t + 70)

---------------------------------------------------------------------

軌道要素はM.P.E.C. 2020-P19に掲載されたものです。
星図はステラナビゲータ Ver.10 (アストロアーツ) で作成したものです。
光度グラフはComet for Windowsで作成したものです。

---------------------------------------------------------------------

Copyright(C) Seiichi Yoshida (comet@aerith.net). All rights reserved.